Location: Plainartige
(45.6866°N, 1.7993°E)
Time: 16:16:06
(UTC+00:00)

deb r/b Ablestar - Visible Passes

Search period start: 25 September 2021 00:00
Search period end: 05 October 2021 00:00
Orbit: 845 x 995 km, 67.7° (Epoch: 25 September)

Date Brightness Start Highest point End Pass type
(mag) Time Alt. Az. Time Alt. Az. Time Alt. Az.
25 Sep ? 20:13:19 10° NNW 20:17:56 30° NE 20:17:56 30° NE visible
25 Sep ? 21:59:12 10° NW 22:01:25 24° NW 22:01:25 24° NW visible
26 Sep ? 18:37:20 10° N 18:39:21 12° NNE 18:41:22 10° NE visible
26 Sep ? 20:21:50 10° NNW 20:26:26 38° NNE 20:26:26 38° NNE visible
26 Sep ? 22:08:06 10° NW 22:09:53 19° NW 22:09:53 19° NW visible
27 Sep ? 18:45:26 10° N 18:48:33 15° NNE 18:51:28 11° ENE visible
27 Sep ? 20:30:25 10° NNW 20:34:56 48° NNE 20:34:56 48° NNE visible
27 Sep ? 22:17:12 10° NW 22:18:25 15° WNW 22:18:25 15° WNW visible
28 Sep ? 18:53:44 10° N 18:57:40 19° NE 19:00:01 15° ENE visible
28 Sep ? 20:39:03 10° NNW 20:43:29 55° NNW 20:43:29 55° NNW visible
28 Sep ? 22:26:35 10° WNW 22:26:57 11° WNW 22:26:57 11° WNW visible
29 Sep ? 19:02:09 10° NNW 19:06:43 24° NE 19:08:36 20° ENE visible
29 Sep ? 20:47:45 10° NW 20:52:04 52° NW 20:52:04 52° NW visible
30 Sep ? 19:10:37 10° NNW 19:15:40 31° NE 19:17:14 27° ENE visible
30 Sep ? 20:56:33 10° NW 21:00:42 42° WNW 21:00:42 42° WNW visible
01 Oct ? 19:19:09 10° NNW 19:24:34 42° NE 19:25:55 37° E visible
01 Oct ? 21:05:29 10° NW 21:09:24 32° W 21:09:24 32° W visible
02 Oct ? 19:27:43 10° NNW 19:33:22 59° NE 19:34:40 48° ESE visible
02 Oct ? 21:14:35 10° NW 21:18:09 24° W 21:18:09 24° W visible
03 Oct ? 17:51:00 10° N 17:55:03 19° NE 17:59:09 10° E visible
03 Oct ? 19:36:22 10° NNW 19:42:07 82° ENE 19:43:29 55° SE visible
03 Oct ? 21:24:03 10° WNW 21:26:58 17° W 21:26:58 17° W visible
04 Oct ? 17:59:25 10° NNW 18:04:04 25° NE 18:08:49 10° E visible
04 Oct ? 19:45:05 10° NW 19:50:47 71° WSW 19:52:24 48° S visible
04 Oct ? 21:34:43 10° W 21:35:53 11° W 21:35:53 11° W visible
